Hof Plauen, Germany

7:13 AM CEST on April 28, 2017 (GMT +0200)
Hof-Plauen

Weather History for EDQM - September, 2012

Change the Weather History Date:

Tuesday, September 4, 2012

  Actual Average Record
Temperature  
Mean Temperature 60 °F -  
Max Temperature 70 °F 59 °F 82 °F (2011)
Min Temperature 50 °F 44 °F 39 °F (2007)
Degree Days  
Heating Degree Days 5    
Growing Degree Days 10 (Base 50)    
Moisture  
Dew Point 50 °F    
Average Humidity 70    
Maximum Humidity 94    
Minimum Humidity 44    
Precipitation  
Precipitation 0.00 in - - ()
Sea Level Pressure  
Sea Level Pressure 30.19 in    
Wind  
Wind Speed 5 mph ()    
Max Wind Speed 10 mph    
Max Gust Speed -    
Visibility 6.9 miles    
Events      
Averages and records for this station are not official NWS values.
T = Trace of Precipitation, MM = Missing Value Source: Averaged Metar Reports

Daily Weather History Graph

Daily Weather History Graph

Search for Another Location

Airport or City:

Trip Planner

Search our weather history database for the weather conditions in past years. The results will help you decide how hot, cold, wet, or windy it might be!

Date:

Astronomy

Sep. 04, 2012 Rise Set
Actual Time 6:31 AM CEST 7:49 PM CEST
Civil Twilight 5:58 AM CEST 8:23 PM CEST
Nautical Twilight 5:17 AM CEST 9:03 PM CEST
Astronomical Twilight 4:33 AM CEST 9:47 PM CEST
Moon 8:59 PM CEST (9/4) 10:53 AM CEST (9/4)
Length of Visible Light 14h 25m
Length of Day
13h 17m
Waning Gibbous, 85% of the Moon is Illuminated
Sep 4
Waning Gibbous
Sep 8
Last Quarter
Sep 16
New
Sep 22
First Quarter
Sep 30
Full

Hourly Weather History & Observations

Time (CEST) Temp. Dew Point Humidity Pressure Visibility Wind Dir Wind Speed Gust Speed Precip Events Conditions
12:00 AM 58 °F 49 °F 65% 30.22 in 7 mi NNE 4.5 mph - -  
12:20 AM 55.4 °F 46.4 °F 72% 30.24 in 6.2 mi North 5.8 mph - N/A   Unknown
12:50 AM 53.6 °F 46.4 °F 77% 30.24 in 6.2 mi NNE 4.6 mph - N/A   Mostly Cloudy
1:00 AM 56 °F 49 °F 72% 30.22 in 5 mi North 4.5 mph - -  
1:20 AM 53.6 °F 48.2 °F 82% 30.24 in 6.2 mi North 4.6 mph - N/A   Scattered Clouds
1:50 AM 53.6 °F 48.2 °F 82% 30.24 in 6.2 mi North 4.6 mph - N/A   Partly Cloudy
2:00 AM 54 °F 50 °F 80% 30.22 in 3 mi North 4.5 mph - -   Mist
2:20 AM 51.8 °F 46.4 °F 82% 30.24 in 6.2 mi North 5.8 mph - N/A   Unknown
2:50 AM 51.8 °F 48.2 °F 88% 30.24 in 5.0 mi North 5.8 mph - N/A   Mist
3:00 AM 53 °F 50 °F 85% 30.22 in 2 mi North 4.5 mph - -   Mist
3:20 AM 50.0 °F 46.4 °F 87% 30.24 in 5.0 mi North 5.8 mph - N/A   Mist
3:50 AM 51.8 °F 48.2 °F 88% 30.24 in 4.3 mi NNW 6.9 mph - N/A   Mist
4:00 AM 52 °F 50 °F 89% 30.22 in 2 mi NNW 4.5 mph - -   Mist
4:20 AM 51.8 °F 46.4 °F 82% 30.21 in 3.7 mi NNW 5.8 mph - N/A   Mist
4:50 AM 51.8 °F 48.2 °F 88% 30.21 in 3.7 mi NNW 5.8 mph - N/A   Mist
5:20 AM 50.0 °F 46.4 °F 87% 30.21 in 3.1 mi North 3.5 mph - N/A   Mist
5:50 AM 48.2 °F 46.4 °F 93% 30.21 in 3.1 mi North 4.6 mph - N/A   Mist
6:00 AM 51 °F 49 °F 92% 30.21 in 6 mi NNW 4.5 mph - -   Partly Cloudy
6:20 AM 50.0 °F 48.2 °F 94% 30.21 in - North 6.9 mph - N/A   Mist
6:50 AM 50.0 °F 46.4 °F 87% 30.21 in 2.5 mi North 5.8 mph - N/A   Mist
7:00 AM 51 °F 49 °F 92% 30.21 in 3 mi NNW 2.2 mph - -   Mist
7:20 AM 50.0 °F 48.2 °F 94% 30.21 in 3.1 mi NNE 4.6 mph - N/A   Mist
7:50 AM 51.8 °F 48.2 °F 88% 30.21 in 3.1 mi North 4.6 mph - N/A   Mist
8:00 AM 51 °F 49 °F 92% 30.22 in 2 mi NNW 2.2 mph - -   Mist
8:20 AM 51.8 °F 48.2 °F 88% 30.21 in 3.1 mi North 4.6 mph - N/A   Mist
8:50 AM 55.4 °F 50.0 °F 82% 30.21 in 3.7 mi North 5.8 mph - N/A   Unknown
9:00 AM 55 °F 51 °F 83% 30.21 in 2 mi North 4.5 mph - -   Mist
9:20 AM 57.2 °F 51.8 °F 82% 30.21 in 5.0 mi NNE 8.1 mph - N/A   Unknown
9:50 AM 60.8 °F 50.0 °F 68% 30.21 in - NE 5.8 mph - N/A   Clear
10:00 AM 60 °F 53 °F 71% 30.19 in 5 mi NE 4.5 mph - -  
10:20 AM 62.6 °F 50.0 °F 63% 30.21 in - NE 9.2 mph - N/A   Clear
10:50 AM 64.4 °F 50.0 °F 59% 30.24 in - NE 10.4 mph - N/A   Clear
11:20 AM 66.2 °F 50.0 °F 56% 30.24 in - NE 10.4 mph - N/A   Clear
11:50 AM 66.2 °F 48.2 °F 52% 30.21 in - NNE 8.1 mph - N/A   Clear
12:00 PM 66 °F 51 °F 49% 30.16 in 16 mi NE 6.7 mph - -   Scattered Clouds
12:20 PM 66.2 °F 50.0 °F 56% 30.21 in - NNE 8.1 mph - N/A   Clear
12:50 PM 68.0 °F 51.8 °F 56% 30.21 in 6.2 mi NE 5.8 mph - N/A   Partly Cloudy
1:00 PM 67 °F 53 °F 50% 30.14 in 19 mi ENE 6.7 mph - -   Scattered Clouds
1:20 PM 68.0 °F 50.0 °F 52% 30.21 in 6.2 mi Variable 6.9 mph - N/A   Partly Cloudy
1:50 PM 69.8 °F 50.0 °F 49% 30.21 in 6.2 mi Variable 4.6 mph - N/A   Partly Cloudy
2:00 PM 68 °F 53 °F 47% 30.13 in 19 mi NE 4.5 mph - -   Scattered Clouds
2:20 PM 69.8 °F 51.8 °F 53% 30.21 in 6.2 mi ENE 5.8 mph - N/A   Partly Cloudy
2:50 PM 69.8 °F 51.8 °F 53% 30.18 in 6.2 mi NNE 5.8 mph - N/A   Partly Cloudy
3:00 PM 71 °F 54 °F 44% 30.11 in 19 mi NE 4.5 mph - -   Scattered Clouds
3:20 PM 69.8 °F 51.8 °F 53% 30.18 in 6.2 mi ENE 5.8 mph - N/A   Partly Cloudy
3:50 PM 71.6 °F 50.0 °F 46% 30.18 in 6.2 mi Variable 5.8 mph - N/A   Partly Cloudy
4:00 PM 70 °F 53 °F 45% 30.09 in 19 mi NE 4.5 mph - -   Scattered Clouds
4:20 PM 69.8 °F 50.0 °F 49% 30.18 in 6.2 mi NNE 8.1 mph - N/A   Partly Cloudy
4:50 PM 69.8 °F 51.8 °F 53% 30.15 in 6.2 mi NNE 10.4 mph - N/A   Partly Cloudy
5:20 PM 69.8 °F 50.0 °F 49% 30.15 in 6.2 mi North 8.1 mph - N/A   Partly Cloudy
5:50 PM 69.8 °F 50.0 °F 49% 30.15 in 6.2 mi NE 6.9 mph - N/A   Partly Cloudy
6:00 PM 69 °F 52 °F 44% 30.09 in 19 mi NNE 4.5 mph - -   Scattered Clouds
6:20 PM 68.0 °F 50.0 °F 52% 30.15 in - North 8.1 mph - N/A   Clear
6:50 PM 68.0 °F 50.0 °F 52% 30.15 in - North 5.8 mph - N/A   Clear
7:00 PM 67 °F 53 °F 50% 30.08 in 16 mi North 4.5 mph - -   Scattered Clouds
7:20 PM 66.2 °F 50.0 °F 56% 30.15 in - North 8.1 mph - N/A   Clear
7:50 PM 62.6 °F 50.0 °F 63% 30.15 in - North 4.6 mph - N/A   Clear
8:00 PM 64 °F 53 °F 58% 30.10 in 16 mi NNE 4.5 mph - -   Scattered Clouds
8:20 PM 60.8 °F 50.0 °F 68% 30.15 in 6.2 mi North 3.5 mph - N/A   Unknown
8:50 PM 60.8 °F 50.0 °F 68% 30.18 in 6.2 mi North 3.5 mph - N/A   Unknown
9:00 PM 62 °F 53 °F 63% 30.12 in 12 mi NNE 2.2 mph - -   Clear
9:20 PM 59.0 °F 50.0 °F 72% 30.18 in 6.2 mi NNE 4.6 mph - N/A   Unknown
9:50 PM 57.2 °F 50.0 °F 77% 30.18 in 6.2 mi NNE 4.6 mph - N/A   Unknown
10:00 PM 60 °F 52 °F 68% 30.14 in 5 mi North 2.2 mph - -  
10:20 PM 53.6 °F 48.2 °F 82% 30.18 in 6.2 mi Variable 2.3 mph - N/A   Unknown
10:50 PM 53.6 °F 50.0 °F 88% 30.18 in 6.2 mi North 2.3 mph - N/A   Unknown
11:20 PM 53.6 °F 48.2 °F 82% 30.15 in 6.2 mi North 4.6 mph - N/A   Unknown
11:50 PM 53.6 °F 50.0 °F 88% 30.15 in 6.2 mi North 4.6 mph - N/A   Unknown